Regional Weather Roundup
Issued by NWS Albany, NY

Home | Current Version | Previous Version | Text Only | Print | Product List | Glossary On
Versions: 1 2 3 4 5 6 7 8 9 10 11 12 13 14 15 16 17 18 19 20 21 22 23 24 25 26 27 28 29 30 31 32 33 34 35 36 37 38 39 40 41 42 43 44 45 46 47 48 49 50
567
ASUS41 KALY 061610
RWRALY

NEW YORK STATE HOURLY WEATHER ROUNDUP
NATIONAL WEATHER SERVICE ALBANY NY
1100 AM EST SAT FEB 06 2016

NOTE: "FAIR" INDICATES FEW OR NO CLOUDS BELOW 12,000 FEET WITH NO
SIGNIFICANT WEATHER AND/OR NO OBSTRUCTIONS TO VISIBILITY.

NYZ032-033-038>043-046>054-057>066-NYZ062>081-061700-
EAST


CITY           SKY/WX    TMP DP  RH WIND       PRES   REMARKS
ALBANY         PTSUNNY   34  18  52 S9G18     30.32F WCI  27
GLENS FALLS    PTSUNNY   33  19  56 S15       30.29F WCI  23
POUGHKEEPSIE   MOSUNNY   36  18  48 SW7       30.38F WCI  30
NEWBURGH       PTSUNNY   34  21  60 W7        30.38F WCI  28
MONTGOMERY     MOSUNNY   35  20  54 SW10      30.36F WCI  27
WHITE PLAINS   MOSUNNY   34  17  50 VRB5      30.38F WCI  30
ISLIP          CLOUDY    35  22  58 W7        30.41F WCI  29
NEW YORK CITY  PTSUNNY   38  18  44 SW7       30.42F WCI  33
CENTRAL PARK   MOSUNNY   37  20  50 CALM      30.43F
$$

NYZ005>009-017-018-044>046-055-056-061700-
CENTRAL


CITY           SKY/WX    TMP DP  RH WIND       PRES   REMARKS
FULTON         CLOUDY    39  21  48 SW12G20   30.22F WCI  32
SYRACUSE       CLOUDY    36  19  50 SW15      30.23F WCI  27
ROME           CLOUDY    34  20  56 SW7       30.26F WCI  28
ELMIRA         MOSUNNY   36  21  54 SW10      30.25F WCI  28
BINGHAMTON     CLOUDY    30  17  58 SW13      30.23F WCI  20
MONTICELLO     SUNNY     30  19  64 S7        30.31F WCI  23
$$

NYZ026>034-041>043-061700-
NORTH


CITY           SKY/WX    TMP DP  RH WIND       PRES   REMARKS
WATERTOWN      CLOUDY    34  22  61 S15G23    30.18F WCI  24
FORT DRUM      NOT AVBL
MASSENA        LGT SNOW  31  27  85 SW9       30.18F VSB 1   WCI  23
SARANAC LAKE   LGT SNOW  27  23  85 SW9       30.11F FOG     WCI  18
PLATTSBURGH    CLOUDY    34  22  61 S10       30.19F WCI  26
$$

NYZ001>004-010>016-019>021-061700-
WEST


CITY           SKY/WX    TMP DP  RH WIND       PRES   REMARKS
NIAGARA FALLS  PTSUNNY   36  24  62 W17       30.22F WCI  26
BUFFALO        FLURRIES  33  26  75 SW14      30.23S WCI  23
DUNKIRK        CLOUDY    32  23  69 SW14      30.26F WCI  22
JAMESTOWN      CLOUDY    30  19  64 SW12G17   30.21F WCI  21
WELLSVILLE     MOSUNNY   31  19  61 W13G21    30.20F WCI  21
ROCHESTER      FLURRIES  35  26  69 W15G26    30.23R WCI  25
PENN YAN       PTSUNNY   37  20  50 W15       30.23F WCI  28
$$

             KEY
       WCI = WIND CHILL INDEX
       VSB = VISIBILITY
       HX  = HEAT INDEX
$$




USA.gov is the U.S. government's official web portal to all federal, state and local government web resources and services.